Location: Be Tobo
(6.6442°N, 10.6239°W)
Time: 00:31:27
(UTC+00:00)

CSL-04 Rocket - Pass Details

Date: 18 September 2020
Orbit: 806 x 860 km, 98.9° (Epoch: 21 October)

Event Time Altitude Azimuth Distance (km) Brightness Sun altitude
Rises 19:56:05 0° 162° (SSE) 3,326 6.6 -19.6°
Reaches altitude 10° 19:58:26 10° 159° (SSE) 2,399 5.8 -20.2°
Maximum altitude 20:03:42 68° 77° (ENE) 880 3.5 -21.5°
Drops below altitude 10° 20:09:01 10° 355° (N) 2,426 6.2 -22.8°
Sets 20:11:24 0° 352° (N) 3,367 7.0 -23.4°
